Location: Wiesbaden
(50.0830°N, 8.2500°E)
Time: 21:48:16
(UTC+02:00)

ISS - Pass Details

Date: 15 September 2019
Orbit: 411 x 421 km, 51.6° (Epoch: 19 September)

Event Time Altitude Azimuth Distance (km) Brightness Sun altitude
Exits shadow 05:32:28 16° 190° (S) 1,194 -1.8 -14.7°
Drops below altitude 10° 05:33:38 10° 172° (S) 1,486 -1.1 -14.5°
Sets 05:36:07 0° 154° (SSE) 2,347 0.1 -14.1°
